Weather History for Millinocket, ME

Change the Weather History Date:

Monday, June 4, 2012

  Actual Average Record
Temperature  
Mean Temperature 53 °F 59 °F  
Max Temperature 59 °F 70 °F 94 °F (1919)
Min Temperature 47 °F 48 °F 26 °F (1916)
Degree Days  
Heating Degree Days 12 7  
Month to date heating degree days 40 28  
Since 1 June heating degree days 40 28  
Since 1 July heating degree days 7105 8318  
Cooling Degree Days 0 1  
Month to date cooling degree days 0 4  
Year to date cooling degree days 7 10  
Since 1 June cooling degree days 0 4  
Growing Degree Days 2 (Base 50)    
Moisture  
Dew Point 44 °F    
Average Humidity 75    
Maximum Humidity 93    
Minimum Humidity 57    
Precipitation  
Precipitation 0.20 in 0.13 in 1.28 in (1914)
Month to date precipitation 0.83 0.51  
Year to date precipitation 12.30 15.58  
Sea Level Pressure  
Sea Level Pressure 29.84 in    
Wind  
Wind Speed 8 mph (NE)    
Max Wind Speed 16 mph    
Max Gust Speed 24 mph    
Visibility 10 miles    
Events Rain    
T = Trace of Precipitation, MM = Missing Value Source: NWS Daily Summary

Daily Weather History Graph

Daily Weather History Graph

Search for Another Location

Airport:

Trip Planner

Search our weather history database for the weather conditions in past years. The results will help you decide how hot, cold, wet, or windy it might be!

Date:

Astronomy

Jun. 04, 2012 Rise Set
Actual Time 4:47 AM EDT 8:19 PM EDT
Civil Twilight 4:09 AM EDT 8:57 PM EDT
Nautical Twilight 3:20 AM EDT 9:46 PM EDT
Astronomical Twilight 2:15 AM EDT 10:52 PM EDT
Moon 8:44 PM EDT (6/4) 4:51 AM EDT (6/4)
Length of Visible Light 16h 47m
Length of Day
15h 32m
Full, 100% of the Moon is Illuminated
Jun 4
Full
Jun 11
Last Quarter
Jun 19
New
Jun 26
First Quarter
Jul 3
Full

Hourly Weather History & Observations

Time (EDT) Temp. Dew Point Humidity Pressure Visibility Wind Dir Wind Speed Gust Speed Precip Events Conditions
12:53 AM 48.9 °F 46.0 °F 90% 29.84 in 7.0 mi NE 6.9 mph - 0.06 in Rain Light Rain
1:53 AM 48.0 °F 45.0 °F 89% 29.83 in 6.0 mi ENE 4.6 mph - 0.07 in Rain Light Rain
2:53 AM 48.0 °F 44.1 °F 86% 29.82 in 9.0 mi NNE 5.8 mph - 0.07 in Rain Light Rain
3:53 AM 46.9 °F 44.1 °F 90% 29.82 in 9.0 mi Variable 4.6 mph - 0.05 in Rain Light Rain
4:53 AM 46.9 °F 44.1 °F 90% 29.81 in 10.0 mi NNE 6.9 mph - 0.02 in   Overcast
5:53 AM 48.0 °F 44.1 °F 86% 29.81 in 10.0 mi Variable 5.8 mph - N/A   Overcast
6:46 AM 48.2 °F 42.8 °F 82% 29.79 in 10.0 mi NNE 6.9 mph - N/A   Overcast
6:53 AM 48.9 °F 43.0 °F 80% 29.81 in 10.0 mi NE 6.9 mph - N/A   Overcast
7:33 AM 50.0 °F 42.8 °F 76% 29.80 in 10.0 mi NNE 6.9 mph - N/A   Overcast
7:53 AM 51.1 °F 44.1 °F 77% 29.81 in 10.0 mi Variable 5.8 mph - N/A   Overcast
8:53 AM 52.0 °F 43.0 °F 71% 29.81 in 10.0 mi NE 8.1 mph - N/A   Overcast
9:53 AM 53.1 °F 45.0 °F 74% 29.83 in 10.0 mi NE 9.2 mph - N/A   Overcast
10:53 AM 55.0 °F 45.0 °F 69% 29.83 in 10.0 mi NE 9.2 mph 17.3 mph N/A   Overcast
11:53 AM 55.9 °F 45.0 °F 67% 29.84 in 10.0 mi ENE 10.4 mph - N/A   Overcast
12:53 PM 55.0 °F 44.1 °F 67% 29.85 in 10.0 mi ENE 13.8 mph 20.7 mph N/A   Overcast
1:53 PM 57.0 °F 45.0 °F 64% 29.85 in 10.0 mi NE 8.1 mph - N/A   Overcast
2:53 PM 55.9 °F 44.1 °F 64% 29.86 in 10.0 mi NE 11.5 mph 20.7 mph N/A   Overcast
3:53 PM 55.9 °F 44.1 °F 64% 29.86 in 10.0 mi NE 6.9 mph - N/A   Overcast
4:53 PM 59.0 °F 44.1 °F 58% 29.85 in 10.0 mi NE 12.7 mph 18.4 mph N/A   Overcast
5:53 PM 57.0 °F 45.0 °F 64% 29.85 in 10.0 mi ENE 10.4 mph - N/A   Overcast
6:53 PM 55.9 °F 43.0 °F 62% 29.87 in 10.0 mi ENE 11.5 mph - N/A   Overcast
7:53 PM 54.0 °F 43.0 °F 66% 29.87 in 10.0 mi NE 8.1 mph - N/A   Overcast
8:53 PM 53.1 °F 43.0 °F 69% 29.88 in 10.0 mi Variable 6.9 mph - N/A   Overcast
9:53 PM 52.0 °F 41.0 °F 66% 29.87 in 10.0 mi NE 5.8 mph - N/A   Overcast
10:53 PM 51.1 °F 39.9 °F 66% 29.87 in 10.0 mi NNE 9.2 mph - N/A   Overcast
11:53 PM 51.1 °F 39.0 °F 63% 29.87 in 10.0 mi North 9.2 mph - N/A   Overcast